Location: Gungolding
(48.9246°N, 11.3502°E)
Time: 11:20:08
(UTC+02:00)

Tiros 1 - All Passes

Search period start: 04 April 2020 00:00
Search period end: 14 April 2020 00:00
Orbit: 630 x 664 km, 48.4° (Epoch: 04 April)

Date Brightness Start Highest point End Pass type
(mag) Time Alt. Az. Time Alt. Az. Time Alt. Az.
04 Apr - 09:59:42 10° SSE 10:00:52 11° SE 10:02:01 10° ESE daylight
04 Apr - 11:37:40 10° SW 11:42:06 38° SSE 11:46:34 10° E daylight
04 Apr - 13:19:14 10° WSW 13:24:03 79° S 13:28:52 10° E daylight
04 Apr - 15:01:26 10° W 15:06:16 77° S 15:11:05 10° ESE daylight
04 Apr - 16:43:46 10° W 16:48:11 36° SSW 16:52:33 10° SE daylight
05 Apr - 10:22:47 10° S 10:26:22 21° SE 10:29:58 10° E daylight
05 Apr - 12:03:15 10° WSW 12:07:58 59° SSE 12:12:42 10° E daylight
05 Apr - 13:45:17 10° W 13:50:06 86° S 13:54:57 10° E daylight
05 Apr - 15:27:30 10° W 15:32:15 59° SSW 15:36:58 10° ESE daylight
05 Apr - 17:10:16 10° W 17:13:51 21° SW 17:17:26 10° S daylight
06 Apr - 10:47:40 10° SW 10:52:02 36° SSE 10:56:27 10° E daylight
06 Apr - 12:29:09 10° WSW 12:33:57 78° S 12:38:47 10° E daylight
06 Apr - 14:11:21 10° W 14:16:10 79° S 14:20:59 10° ESE daylight
06 Apr - 15:53:40 10° W 15:58:06 38° SSW 16:02:33 10° SE daylight
06 Apr - 17:38:19 10° WSW 17:39:21 11° SW 17:40:22 10° SW daylight
07 Apr - 09:32:53 10° S 09:36:19 20° SE 09:39:47 10° E daylight
07 Apr - 11:13:12 10° WSW 11:17:53 57° SSE 11:22:37 10° E daylight
07 Apr - 12:55:12 10° W 13:00:01 86° S 13:04:52 10° E daylight
07 Apr - 14:37:25 10° W 14:42:11 61° SSW 14:46:55 10° ESE daylight
07 Apr - 16:20:05 10° W 16:23:49 22° SW 16:27:31 10° SSE daylight
08 Apr - 09:57:41 10° SSW 10:01:59 34° SSE 10:06:19 10° E daylight
08 Apr - 11:39:05 10° WSW 11:43:52 76° SSE 11:48:41 10° E daylight
08 Apr - 13:21:16 10° W 13:26:05 80° S 13:30:55 10° ESE daylight
08 Apr - 15:03:33 10° W 15:08:03 40° SSW 15:12:32 10° SE daylight
08 Apr - 16:47:42 10° WSW 16:49:20 12° SW 16:50:58 10° SSW daylight
09 Apr - 08:43:01 10° S 08:46:17 19° SE 08:49:36 10° E daylight
09 Apr - 10:23:10 10° SW 10:27:49 54° SSE 10:32:31 10° E daylight
09 Apr - 12:05:07 10° W 12:09:55 86° S 12:14:46 10° E daylight
09 Apr - 13:47:20 10° W 13:52:06 63° SSW 13:56:51 10° ESE daylight
09 Apr - 15:29:56 10° W 15:33:46 24° SW 15:37:36 10° SSE daylight
10 Apr - 09:07:43 10° SSW 09:11:57 33° SSE 09:16:12 10° E daylight
10 Apr - 10:49:01 10° WSW 10:53:47 75° SSE 10:58:36 10° E daylight
10 Apr - 12:31:11 10° W 12:36:00 81° S 12:40:49 10° ESE daylight
10 Apr - 14:13:27 10° W 14:18:00 42° SSW 14:22:31 10° SE daylight
10 Apr - 15:57:16 10° WSW 15:59:18 13° SW 16:01:21 10° SSW daylight
11 Apr - 07:53:11 10° S 07:56:16 17° SE 07:59:23 10° E daylight
11 Apr - 09:33:08 10° SW 09:37:45 52° SSE 09:42:24 10° E daylight
11 Apr - 11:15:03 10° W 11:19:50 85° S 11:24:40 10° E daylight
11 Apr - 12:57:15 10° W 13:02:01 65° SSW 13:06:47 10° ESE daylight
11 Apr - 14:39:48 10° W 14:43:44 25° SW 14:47:39 10° SSE daylight
12 Apr - 08:17:45 10° SSW 08:21:53 31° SSE 08:26:04 10° E daylight
12 Apr - 09:58:58 10° WSW 10:03:42 73° SSE 10:08:30 10° E daylight
12 Apr - 11:41:06 10° W 11:45:54 83° S 11:50:44 10° E daylight
12 Apr - 13:23:22 10° W 13:27:55 44° SSW 13:32:29 10° SE daylight
12 Apr - 15:06:56 10° WSW 15:09:17 14° SW 15:11:39 10° SSW daylight
13 Apr - 07:03:22 10° S 07:06:15 16° SE 07:09:09 10° E daylight
13 Apr - 08:43:07 10° SW 08:47:41 50° SSE 08:52:18 10° E daylight
13 Apr - 10:24:58 10° W 10:29:45 85° S 10:34:34 10° E daylight
13 Apr - 12:07:10 10° W 12:11:56 67° SSW 12:16:43 10° ESE daylight
13 Apr - 13:49:40 10° W 13:53:41 27° SW 13:57:42 10° SSE daylight
